This demonstration page uses our WeatherBlox Daily Observations layout. Learn more.

Left ArrowRight Arrow

Hourly Observations for May 22, 2022

Temp ( °F °C ) Dew Point ( °F °C ) Humidity (%) Winds ( mph kmh ) Pressure ( in mb ) Visibility ( mi km ) Precip ( " mm )
12:53 am 00:53 Clear 68 20 37 2.8 32 32 ENE 18 30 30.00 1016 10 16 0.00 0.00
1:53 am 01:53 Clear 65 18.3 37 2.8 36 36 ENE 18 30 30.02 1017 10 16 0.00 0.00
2:53 am 02:53 Clear 63 17.2 37 2.8 38 38 ENE 20 31 30.03 1017 10 16 0.00 0.00
3:53 am 03:53 Clear 60 15.6 36 2.2 41 41 ENE 23 37 30.07 1018 10 16 0.00 0.00
4:53 am 04:53 Clear 58 14.4 35 1.7 42 42 ENE 17 28 30.13 1020 10 16 0.00 0.00
5:53 am 05:53 Clear 57 13.9 34 1.1 42 42 ENE 18 30 30.16 1021 10 16 0.00 0.00
6:53 am 06:53 Cloudy 56 13.3 34 1.1 44 44 ENE 17 28 30.19 1022 10 16 0.00 0.00
7:53 am 07:53 Cloudy 56 13.3 32 0 40 40 ENE 17 28 30.21 1023 10 16 0.00 0.00
8:53 am 08:53 Cloudy 56 13.3 32 0 40 40 NE 18 30 30.24 1024 10 16 0.00 0.00
9:53 am 09:53 Cloudy 57 13.9 32 0 39 39 ENE 16 26 30.25 1025 10 16 0.00 0.00
10:53 am 10:53 Cloudy 59 15 32 0 36 36 E 12 19 30.24 1024 10 16 0.00 0.00
11:53 am 11:53 Cloudy 61 16.1 32 0 34 34 ENE 10 17 30.24 1024 10 16 0.00 0.00
12:53 pm 12:53 Cloudy 62 16.7 32 0 32 32 E 13 20 30.22 1023 10 16 0.00 0.00
1:53 pm 13:53 Cloudy 66 18.9 33 0.6 29 29 E 9 15 30.16 1022 10 16 0.00 0.00
2:53 pm 14:53 Cloudy 65 18.3 33 0.6 31 31 ESE 8 13 30.14 1021 10 16 0.00 0.00
3:53 pm 15:53 Cloudy 68 20 34 1.1 28 28 Calm 30.10 1019 10 16 0.00 0.00
4:53 pm 16:53 Sunny 70 21.1 37 2.8 30 30 ESE 6 9 30.07 1018 10 16 0.00 0.00
5:53 pm 17:53 Sunny 72 22.2 37 2.8 28 28 ESE 6 9 30.04 1017 10 16 0.00 0.00
6:53 pm 18:53 Sunny 73 22.8 39 3.9 29 29 SSE 8 13 30.02 1017 10 16 0.00 0.00
7:53 pm 19:53 Sunny 72 22.2 40 4.4 31 31 SE 8 13 30.01 1016 10 16 0.00 0.00
8:53 pm 20:53 Clear 71 21.7 39 3.9 31 31 SSW 3 6 30.00 1016 10 16 0.00 0.00
9:53 pm 21:53 Clear 69 20.6 38 3.3 32 32 W 6 9 30.01 1016 10 16 0.00 0.00
10:53 pm 22:53 Clear 67 19.4 37 2.8 33 33 NNW 5 7 30.01 1016 10 16 0.00 0.00
11:53 pm 23:53 Clear 66 18.9 37 2.8 34 34 N 3 6 30.00 1016 10 16 0.00 0.00

Powered by AerisWeather